Flag for U.S.A. Weather past 2 weeks in Salinas, California, U.S.A.

Now
61 °F

Clear.


Feels Like: 61 °F
Forecast: 45 / 69 °F
Wind: No wind

Location: Salinas Municipal Airport

Current Time: Feb 1, 2015 at 6:13:48 PM

Latest Report: Feb 1, 2015 at 5:53 PM


Visibility: 10 mi

Pressure: 30.14 "Hg

Humidity: 60%

Dew point: 47 °F

Location of SalinasLocation

Historic Weather in Salinas — Graph

°F

Salinas temperature yesterday

Maximum temperature yesterday: 73 °F (at 12:53 PM)
Minimum temperature yesterday: 46 °F (at 11:53 PM)
Average temperature yesterday: 57 °F

Past Weeks' High & Low Weather Summary

 TemperatureHumidityPressure
High82 °F (Jan 25, 2:53 PM)94% (Jan 31, 8:02 AM)30.37 "Hg (Jan 31, 8:02 AM)
Low41 °F (Jan 21, 3:53 AM)15% (Jan 25, 2:53 PM)29.92 "Hg (Jan 31, 4:53 AM)
Average56 °F66%30.15 "Hg
* Reported Jan 17 4:53 PM — Feb 1 4:53 PM, Salinas, Weather by CustomWeather, © 2014

Note: Actual official high and low records may vary slightly from our data, if they occured in-between our weather recording intervals... More about our weather records

Advertising

Salinas weather history for previous 24 hours

 ConditionsComfort  
Time TempWeatherWind HumidityBarometerVisibility
4:53 PM
Feb 1
63 °FSunny.5 mph56%30.13 "Hg10 mi
3:53 PM64 °FSunny.9 mph56%30.13 "Hg10 mi
2:53 PM67 °FSunny.14 mph51%30.12 "Hg10 mi
1:53 PM73 °FSunny.No wind29%30.11 "Hg10 mi
12:53 PM70 °FSunny.5 mph37%30.14 "Hg10 mi
11:53 AM67 °FSunny.8 mph42%30.16 "Hg10 mi
10:53 AM61 °FSunny.15 mph54%30.17 "Hg10 mi
9:53 AM56 °FSunny.17 mph62%30.18 "Hg9 mi
8:53 AM51 °FSunny.17 mph69%30.17 "Hg10 mi
7:53 AM48 °FSunny.13 mph68%30.15 "Hg10 mi
6:53 AM43 °FClear.7 mph74%30.13 "Hg10 mi
5:53 AM43 °FClear.8 mph71%30.14 "Hg10 mi
4:53 AM47 °FClear.12 mph66%30.12 "Hg10 mi
3:53 AM46 °FClear.7 mph66%30.11 "Hg10 mi
2:53 AM46 °FClear.14 mph71%30.11 "Hg10 mi
1:53 AM43 °FClear.8 mph71%30.11 "Hg10 mi
12:53 AM44 °FClear.5 mph76%30.11 "Hg10 mi
11:53 PM
Jan 31
46 °FClear.No wind71%30.11 "Hg10 mi
10:53 PM47 °FClear.No wind71%30.09 "Hg10 mi
9:53 PM50 °FClear.No wind68%30.07 "Hg10 mi
8:53 PM51 °FClear.No wind63%30.06 "Hg10 mi
7:53 PM57 °FClear.No wind64%30.04 "Hg10 mi
6:53 PM59 °FClear.3 mph51%30.04 "Hg10 mi
Weather by CustomWeather, © 2014

See weather overviewHow to use our weather pages